Weather History for KEFK - February, 2012

Change the Weather History Date:

Tuesday, February 14, 2012

  Actual Average Record
Temperature  
Mean Temperature 31 °F -  
Max Temperature 39 °F 27 °F 50 °F (1946)
Min Temperature 23 °F 6 °F -25 °F (1987)
Degree Days  
Heating Degree Days 34    
Moisture  
Dew Point 14 °F    
Average Humidity 47    
Maximum Humidity 64    
Minimum Humidity 27    
Precipitation  
Precipitation 0.00 in - - ()
Sea Level Pressure  
Sea Level Pressure 29.95 in    
Wind  
Wind Speed 5 mph (South)    
Max Wind Speed 10 mph    
Max Gust Speed 16 mph    
Visibility 10 miles    
Events      
Averages and records for this station are not official NWS values.
T = Trace of Precipitation, MM = Missing Value Source: NWS Daily Summary

Daily Weather History Graph

Daily Weather History Graph

Search for Another Location

Airport or City:

Trip Planner

Search our weather history database for the weather conditions in past years. The results will help you decide how hot, cold, wet, or windy it might be!

Date:

Astronomy

Feb. 14, 2012 Rise Set
Actual Time 6:51 AM EST 5:14 PM EST
Civil Twilight 6:21 AM EST 5:45 PM EST
Nautical Twilight 5:47 AM EST 6:19 PM EST
Astronomical Twilight 5:13 AM EST 6:53 PM EST
Moon 12:39 AM EST (2/14) 10:11 AM EST (2/14)
Length of Visible Light 11h 23m
Length of Day
10h 23m
Waning Gibbous, 50% of the Moon is Illuminated
Feb 14
Waning Gibbous
Feb 14
Last Quarter
Feb 21
New
Feb 29
First Quarter
Mar 8
Full

Hourly Weather History & Observations

Time (EST) Temp. Windchill Dew Point Humidity Pressure Visibility Wind Dir Wind Speed Gust Speed Precip Events Conditions
12:15 AM 24.6 °F - 11.1 °F 57% 29.86 in 10.0 mi Calm Calm - N/A   Overcast
12:55 AM 24.3 °F 19.9 °F 12.7 °F 62% 29.86 in 10.0 mi SSE 3.5 mph - N/A   Overcast
1:15 AM 24.6 °F 20.3 °F 13.6 °F 63% 29.87 in 10.0 mi SSW 3.5 mph - N/A   Overcast
1:35 AM 25.3 °F 21.1 °F 12.7 °F 59% 29.88 in 10.0 mi SSW 3.5 mph - N/A   Overcast
1:55 AM 26.8 °F 21.4 °F 14.9 °F 61% 29.88 in 10.0 mi SSW 4.6 mph - N/A   Overcast
2:15 AM 28.4 °F 20.4 °F 15.6 °F 59% 29.89 in 10.0 mi SW 8.1 mph - N/A   Overcast
2:35 AM 28.4 °F 21.2 °F 15.6 °F 59% 29.89 in 10.0 mi SW 6.9 mph - N/A   Overcast
2:55 AM 29.3 °F 21.5 °F 16.2 °F 58% 29.89 in 10.0 mi SW 8.1 mph - N/A   Overcast
3:15 AM 30.2 °F 21.9 °F 16.5 °F 57% 29.90 in 10.0 mi SW 9.2 mph - N/A   Overcast
3:35 AM 31.1 °F 22.4 °F 16.3 °F 54% 29.91 in 10.0 mi SW 10.4 mph - N/A   Overcast
3:55 AM 31.5 °F 24.9 °F 15.8 °F 52% 29.91 in 10.0 mi SSW 6.9 mph - N/A   Mostly Cloudy
4:15 AM 30.2 °F 21.3 °F 15.1 °F 53% 29.92 in 10.0 mi SW 10.4 mph - N/A   Scattered Clouds
4:35 AM 30.2 °F 21.9 °F 14.5 °F 52% 29.92 in 10.0 mi WSW 9.2 mph 16.1 mph N/A   Clear
4:55 AM 30.2 °F 26.7 °F 13.5 °F 50% 29.93 in 10.0 mi SSW 3.5 mph - N/A   Scattered Clouds
5:15 AM 28.6 °F 24.8 °F 13.8 °F 54% 29.93 in 10.0 mi South 3.5 mph - N/A   Scattered Clouds
5:35 AM 29.3 °F 25.6 °F 14.0 °F 53% 29.94 in 10.0 mi WSW 3.5 mph - N/A   Overcast
5:55 AM 30.0 °F 24.1 °F 15.1 °F 54% 29.94 in 10.0 mi SSE 5.8 mph - N/A   Overcast
6:15 AM 26.4 °F 20.9 °F 14.5 °F 61% 29.94 in 10.0 mi SSE 4.6 mph - N/A   Mostly Cloudy
6:35 AM 28.2 °F 22.0 °F 15.3 °F 58% 29.94 in 10.0 mi South 5.8 mph - N/A   Scattered Clouds
6:55 AM 27.0 °F 20.5 °F 13.6 °F 57% 29.95 in 10.0 mi SW 5.8 mph - N/A   Clear
7:15 AM 24.3 °F 16.3 °F 13.3 °F 63% 29.95 in 10.0 mi SW 6.9 mph - N/A   Clear
7:35 AM 23.7 °F 17.8 °F 13.1 °F 64% 29.96 in 10.0 mi SSE 4.6 mph - N/A   Clear
7:55 AM 23.5 °F 17.6 °F 13.1 °F 64% 29.97 in 10.0 mi SSE 4.6 mph - N/A   Clear
8:15 AM 25.5 °F 17.8 °F 14.4 °F 63% 29.98 in 10.0 mi SSE 6.9 mph - N/A   Clear
8:55 AM 27.5 °F 20.2 °F 14.2 °F 57% 29.98 in 10.0 mi SE 6.9 mph - N/A   Scattered Clouds
9:15 AM 29.3 °F 24.3 °F 14.7 °F 55% 29.98 in 10.0 mi South 4.6 mph - N/A   Clear
9:55 AM 30.9 °F 26.2 °F 14.0 °F 50% 29.99 in 10.0 mi South 4.6 mph - N/A   Clear
10:15 AM 32.0 °F 24.2 °F 13.3 °F 46% 29.98 in 10.0 mi South 9.2 mph - N/A   Clear
10:35 AM 33.8 °F 27.0 °F 13.3 °F 43% 29.98 in 10.0 mi South 8.1 mph - N/A   Clear
10:55 AM 34.2 °F 29.0 °F 13.1 °F 42% 29.98 in 10.0 mi South 5.8 mph - N/A   Clear
11:15 AM 35.6 °F 29.9 °F 11.8 °F 38% 29.98 in 10.0 mi South 6.9 mph - N/A   Clear
11:35 AM 36.7 °F 30.5 °F 11.7 °F 36% 29.97 in 10.0 mi South 8.1 mph - N/A   Clear
11:55 AM 36.9 °F 31.4 °F 10.6 °F 34% 29.96 in 10.0 mi South 6.9 mph - N/A   Clear
12:15 PM 37.4 °F 31.4 °F 10.2 °F 33% 29.96 in 10.0 mi SSW 8.1 mph - N/A   Clear
12:35 PM 37.8 °F 32.5 °F 8.8 °F 30% 29.95 in 10.0 mi South 6.9 mph - N/A   Clear
12:55 PM 37.8 °F 31.8 °F 8.6 °F 30% 29.95 in 10.0 mi SSE 8.1 mph - N/A   Clear
1:15 PM 38.7 °F 32.9 °F 7.9 °F 28% 29.94 in 10.0 mi SSE 8.1 mph - N/A   Mostly Cloudy
1:35 PM 38.3 °F 32.5 °F 7.5 °F 28% 29.94 in 10.0 mi South 8.1 mph - N/A   Overcast
1:55 PM 38.5 °F 33.4 °F 6.8 °F 27% 29.94 in 10.0 mi South 6.9 mph - N/A   Overcast
2:15 PM 38.8 °F 33.2 °F 8.2 °F 28% 29.94 in 10.0 mi SSW 8.1 mph - N/A   Overcast
2:35 PM 38.3 °F 31.9 °F 10.4 °F 32% 29.94 in 10.0 mi SSW 9.2 mph - N/A   Overcast
2:55 PM 39.7 °F 34.3 °F 10.4 °F 30% 29.94 in 10.0 mi South 8.1 mph - N/A   Overcast
3:15 PM 39.4 °F 33.2 °F 12.2 °F 33% 29.94 in 10.0 mi South 9.2 mph - N/A   Overcast
3:35 PM 39.6 °F 34.7 °F 12.4 °F 33% 29.94 in 10.0 mi South 6.9 mph - N/A   Overcast
3:55 PM 39.2 °F 34.2 °F 13.3 °F 35% 29.94 in 10.0 mi South 6.9 mph - N/A   Overcast
4:15 PM 38.5 °F 32.7 °F 15.3 °F 39% 29.95 in 10.0 mi SSW 8.1 mph - N/A   Overcast
4:35 PM 38.3 °F 33.2 °F 15.6 °F 40% 29.95 in 10.0 mi South 6.9 mph - N/A   Overcast
4:55 PM 37.8 °F 35.3 °F 17.2 °F 43% 29.96 in 10.0 mi South 3.5 mph - N/A   Overcast
5:15 PM 37.6 °F 34.0 °F 17.4 °F 44% 29.97 in 10.0 mi South 4.6 mph - N/A   Overcast
5:35 PM 37.0 °F 34.5 °F 17.6 °F 45% 29.97 in 10.0 mi SSE 3.5 mph - N/A   Overcast
5:55 PM 37.0 °F 32.4 °F 18.0 °F 46% 29.98 in 10.0 mi SSE 5.8 mph - N/A   Overcast
6:15 PM 36.9 °F 31.4 °F 16.7 °F 44% 29.98 in 10.0 mi South 6.9 mph - N/A   Overcast
6:35 PM 36.1 °F 33.5 °F 16.7 °F 45% 29.98 in 10.0 mi South 3.5 mph - N/A   Overcast
6:55 PM 33.8 °F 27.7 °F 17.4 °F 51% 29.99 in 10.0 mi SSE 6.9 mph - N/A   Overcast
7:15 PM 33.8 °F 27.0 °F 16.5 °F 49% 30.00 in 10.0 mi SE 8.1 mph - N/A   Overcast
7:35 PM 33.8 °F 27.7 °F 16.2 °F 49% 30.00 in 10.0 mi SSE 6.9 mph - N/A   Overcast
8:15 PM 32.0 °F 25.6 °F 16.0 °F 52% 30.01 in 10.0 mi SSE 6.9 mph - N/A   Mostly Cloudy
8:35 PM 32.7 °F 26.4 °F 15.1 °F 48% 30.01 in 10.0 mi South 6.9 mph - N/A   Overcast
8:55 PM 32.4 °F 26.0 °F 14.7 °F 48% 30.01 in 10.0 mi South 6.9 mph - N/A   Overcast
9:15 PM 32.7 °F - 14.4 °F 47% 30.01 in 10.0 mi Calm Calm - N/A   Overcast
9:35 PM 32.4 °F 29.1 °F 14.5 °F 48% 30.01 in 7.0 mi SSW 3.5 mph - N/A   Scattered Clouds
9:55 PM 32.7 °F 28.3 °F 14.4 °F 47% 30.02 in 10.0 mi SSW 4.6 mph - N/A   Clear
10:15 PM 32.4 °F 29.1 °F 14.4 °F 48% 30.02 in 10.0 mi South 3.5 mph - N/A   Clear
10:35 PM 31.5 °F - 15.4 °F 52% 30.02 in 10.0 mi Calm Calm - N/A   Scattered Clouds
10:55 PM 31.8 °F 28.5 °F 15.1 °F 50% 30.02 in 10.0 mi South 3.5 mph - N/A   Overcast
11:15 PM 32.0 °F - 14.9 °F 49% 30.02 in 10.0 mi Calm Calm - N/A   Overcast
11:35 PM 32.2 °F 28.9 °F 15.1 °F 49% 30.03 in 10.0 mi South 3.5 mph - N/A   Overcast
11:55 PM 31.6 °F 28.3 °F 16.7 °F 54% 30.03 in 10.0 mi SSE 3.5 mph - N/A   Overcast